When you browse on this site, cookies collect data to enhance your experience and personalize the content and advertising you see.
Visit our Privacy Policy to learn more. By continuing to use the site, you agree to this use of cookies and data.
  • en Suisse
  • Liste des pays
  • À 7 jours
  • Température de l'eau
  • Carte satellitaire
  • Carte météo
  • Widgets météo
  • user-avatar
    Se connecter

    Météo par heure à Plesets'ke

    Ce jour, 24 Mai, Vendredi

    Heure Température Précipitation Vent Pression Humidité
    00:00 +16°C° 0.1 mm 1 m/s 740 mmHg 83%
    01:00 +16°C° 0.1 mm 1 m/s 740 mmHg 84%
    02:00 +16°C° 0 mm 1 m/s 740 mmHg 86%
    03:00 +16°C° 0.7 mm 1 m/s 740 mmHg 87%
    04:00 +16°C° 0.7 mm 1 m/s 740 mmHg 89%
    05:00 +15°C° 0.7 mm 2 m/s 740 mmHg 91%
    06:00 +18°C° 0 mm 1 m/s 741 mmHg 87%
    07:00 +19°C° 0 mm 1 m/s 741 mmHg 82%
    08:00 +21°C° 0 mm 1 m/s 741 mmHg 78%
    09:00 +22°C° 0.4 mm 1 m/s 741 mmHg 73%
    10:00 +23°C° 0.4 mm 1 m/s 740 mmHg 67%
    11:00 +24°C° 0.4 mm 1 m/s 740 mmHg 61%
    12:00 +25°C° 0.2 mm 1 m/s 740 mmHg 58%
    13:00 +26°C° 0.2 mm 1 m/s 740 mmHg 54%
    14:00 +26°C° 0.2 mm 1 m/s 740 mmHg 51%
    15:00 +26°C° 0 mm 1 m/s 740 mmHg 53%
    16:00 +26°C° 0 mm 1 m/s 740 mmHg 55%
    17:00 +26°C° 0 mm 1 m/s 740 mmHg 57%
    18:00 +24°C° 1.2 mm 2 m/s 739 mmHg 63%
    19:00 +21°C° 1.2 mm 2 m/s 739 mmHg 70%
    20:00 +19°C° 1.2 mm 2 m/s 739 mmHg 76%
    21:00 +19°C° 0.8 mm 1 m/s 739 mmHg 79%
    22:00 +18°C° 0.8 mm 1 m/s 739 mmHg 82%
    23:00 +16°C° 0.8 mm 1 m/s 739 mmHg 86%

    Demain, 25 Mai, Samedi

    Heure Température Précipitation Vent Pression Humidité
    00:00 +15°C° 0 mm 0 m/s 739 mmHg 86%
    01:00 +15°C° 0 mm 0 m/s 739 mmHg 86%
    02:00 +15°C° 0 mm 0 m/s 739 mmHg 86%
    03:00 +15°C° 0 mm 0 m/s 739 mmHg 86%
    04:00 +15°C° 0 mm 0 m/s 738 mmHg 87%
    05:00 +16°C° 0 mm 1 m/s 738 mmHg 87%
    06:00 +18°C° 0.3 mm 1 m/s 738 mmHg 83%
    07:00 +20°C° 0.3 mm 1 m/s 738 mmHg 79%
    08:00 +21°C° 0.3 mm 1 m/s 738 mmHg 75%
    09:00 +22°C° 1.1 mm 1 m/s 738 mmHg 70%
    10:00 +23°C° 1.1 mm 1 m/s 738 mmHg 65%
    11:00 +24°C° 1.1 mm 1 m/s 738 mmHg 61%
    12:00 +25°C° 0.1 mm 1 m/s 738 mmHg 57%
    13:00 +26°C° 0.1 mm 1 m/s 738 mmHg 54%
    14:00 +26°C° 0.1 mm 1 m/s 738 mmHg 51%
    15:00 +25°C° 1.5 mm 2 m/s 738 mmHg 59%
    16:00 +24°C° 1.5 mm 3 m/s 738 mmHg 67%
    17:00 +22°C° 1.5 mm 4 m/s 738 mmHg 75%
    18:00 +21°C° 0.2 mm 4 m/s 738 mmHg 79%
    19:00 +20°C° 0.2 mm 3 m/s 738 mmHg 82%
    20:00 +18°C° 0.2 mm 3 m/s 738 mmHg 86%
    21:00 +18°C° 0.2 mm 3 m/s 738 mmHg 87%
    22:00 +17°C° 0.2 mm 3 m/s 739 mmHg 88%
    23:00 +17°C° 0.2 mm 3 m/s 739 mmHg 89%

    Après-demain, 26 Mai, Dimanche

    Heure Température Précipitation Vent Pression Humidité
    00:00 +16°C° 0.2 mm 3 m/s 739 mmHg 90%
    01:00 +14°C° 0.2 mm 3 m/s 739 mmHg 90%
    02:00 +14°C° 0.2 mm 3 m/s 740 mmHg 91%
    03:00 +13°C° 0 mm 3 m/s 740 mmHg 90%
    04:00 +13°C° 0 mm 3 m/s 740 mmHg 89%
    05:00 +12°C° 0 mm 3 m/s 740 mmHg 89%
    06:00 +14°C° 0 mm 3 m/s 741 mmHg 85%
    07:00 +17°C° 0 mm 3 m/s 741 mmHg 81%
    08:00 +19°C° 0 mm 3 m/s 741 mmHg 77%
    09:00 +20°C° 0.1 mm 4 m/s 742 mmHg 73%
    10:00 +21°C° 0.1 mm 4 m/s 742 mmHg 69%
    11:00 +22°C° 0.1 mm 4 m/s 742 mmHg 64%
    12:00 +22°C° 0.3 mm 5 m/s 742 mmHg 63%
    13:00 +23°C° 0.3 mm 5 m/s 742 mmHg 61%
    14:00 +23°C° 0.3 mm 5 m/s 742 mmHg 59%
    15:00 +23°C° 0 mm 5 m/s 742 mmHg 61%
    16:00 +22°C° 0 mm 5 m/s 742 mmHg 63%
    17:00 +22°C° 0 mm 5 m/s 742 mmHg 65%
    18:00 +20°C° 0 mm 4 m/s 742 mmHg 70%
    19:00 +18°C° 0 mm 3 m/s 742 mmHg 74%
    20:00 +17°C° 0 mm 3 m/s 742 mmHg 79%
    21:00 +16°C° 0 mm 3 m/s 743 mmHg 80%
    22:00 +14°C° 0 mm 3 m/s 743 mmHg 81%
    23:00 +14°C° 0 mm 3 m/s 743 mmHg 82%

    27 Mai, Lundi

    Heure Température Précipitation Vent Pression Humidité
    00:00 +15°C° 0 mm 2 m/s 743 mmHg 84%
    01:00 +14°C° 0 mm 2 m/s 744 mmHg 86%
    02:00 +14°C° 0 mm 2 m/s 744 mmHg 88%
    03:00 +14°C° 0 mm 2 m/s 744 mmHg 89%
    04:00 +15°C° 0 mm 2 m/s 744 mmHg 90%
    05:00 +14°C° 0 mm 3 m/s 744 mmHg 92%
    06:00 +17°C° 0 mm 3 m/s 744 mmHg 87%
    07:00 +18°C° 0 mm 3 m/s 744 mmHg 81%
    08:00 +20°C° 0 mm 3 m/s 745 mmHg 76%
    09:00 +21°C° 0.5 mm 3 m/s 745 mmHg 73%
    10:00 +22°C° 0.5 mm 4 m/s 745 mmHg 71%
    11:00 +23°C° 0.5 mm 4 m/s 745 mmHg 68%
    12:00 +25°C° 0.6 mm 4 m/s 745 mmHg 67%
    13:00 +25°C° 0.6 mm 5 m/s 745 mmHg 67%
    14:00 +26°C° 0.6 mm 5 m/s 745 mmHg 66%
    15:00 +26°C° 0.2 mm 4 m/s 745 mmHg 67%
    16:00 +26°C° 0.2 mm 4 m/s 744 mmHg 68%
    17:00 +26°C° 0.2 mm 3 m/s 744 mmHg 69%
    18:00 +24°C° 0.1 mm 3 m/s 744 mmHg 75%
    19:00 +22°C° 0.1 mm 3 m/s 744 mmHg 80%
    20:00 +20°C° 0.1 mm 3 m/s 744 mmHg 86%
    21:00 +20°C° 0 mm 3 m/s 744 mmHg 86%
    22:00 +19°C° 0 mm 3 m/s 744 mmHg 87%
    23:00 +19°C° 0 mm 3 m/s 744 mmHg 87%

    28 Mai, Mardi

    Heure Température Précipitation Vent Pression Humidité
    00:00 +19°C° 0 mm 4 m/s 745 mmHg 86%
    01:00 +19°C° 0 mm 4 m/s 745 mmHg 85%
    02:00 +19°C° 0 mm 5 m/s 745 mmHg 84%
    03:00 +18°C° 0 mm 4 m/s 745 mmHg 84%
    04:00 +17°C° 0 mm 4 m/s 745 mmHg 84%
    05:00 +17°C° 0 mm 4 m/s 744 mmHg 84%
    06:00 +17°C° 0 mm 5 m/s 745 mmHg 80%
    07:00 +19°C° 0 mm 5 m/s 745 mmHg 75%
    08:00 +21°C° 0 mm 6 m/s 745 mmHg 71%
    09:00 +22°C° 0 mm 7 m/s 745 mmHg 68%
    10:00 +23°C° 0 mm 7 m/s 745 mmHg 65%
    11:00 +24°C° 0 mm 7 m/s 745 mmHg 62%
    12:00 +24°C° 0 mm 7 m/s 744 mmHg 62%
    13:00 +26°C° 0 mm 7 m/s 744 mmHg 62%
    14:00 +26°C° 0 mm 7 m/s 744 mmHg 63%
    15:00 +26°C° 0 mm 7 m/s 743 mmHg 65%
    16:00 +26°C° 0 mm 6 m/s 743 mmHg 67%
    17:00 +27°C° 0 mm 5 m/s 743 mmHg 69%
    18:00 +25°C° 0 mm 5 m/s 742 mmHg 71%
    19:00 +23°C° 0 mm 5 m/s 742 mmHg 74%
    20:00 +22°C° 0 mm 5 m/s 742 mmHg 77%
    21:00 +21°C° 0 mm 5 m/s 742 mmHg 72%
    22:00 +20°C° 0 mm 5 m/s 742 mmHg 68%
    23:00 +19°C° 0 mm 5 m/s 742 mmHg 63%

    29 Mai, Mercredi

    Heure Température Précipitation Vent Pression Humidité
    00:00 +17°C° 0 mm 6 m/s 742 mmHg 63%
    01:00 +17°C° 0 mm 6 m/s 742 mmHg 63%
    02:00 +17°C° 0 mm 6 m/s 742 mmHg 63%
    03:00 +16°C° 0 mm 6 m/s 742 mmHg 68%
    04:00 +16°C° 0 mm 5 m/s 741 mmHg 73%
    05:00 +15°C° 0 mm 5 m/s 741 mmHg 79%
    06:00 +17°C° 0 mm 5 m/s 742 mmHg 78%
    07:00 +19°C° 0 mm 6 m/s 742 mmHg 78%
    08:00 +20°C° 0 mm 6 m/s 742 mmHg 77%
    09:00 +22°C° 0 mm 6 m/s 742 mmHg 75%
    10:00 +23°C° 0 mm 6 m/s 742 mmHg 72%
    11:00 +26°C° 0 mm 6 m/s 742 mmHg 70%
    12:00 +26°C° 0.2 mm 5 m/s 742 mmHg 68%
    13:00 +27°C° 0.2 mm 5 m/s 742 mmHg 66%
    14:00 +28°C° 0.2 mm 5 m/s 742 mmHg 64%
    15:00 +28°C° 0.1 mm 5 m/s 742 mmHg 65%
    16:00 +28°C° 0.1 mm 4 m/s 742 mmHg 66%
    17:00 +28°C° 0.1 mm 4 m/s 742 mmHg 67%
    18:00 +26°C° 0 mm 3 m/s 742 mmHg 71%
    19:00 +24°C° 0 mm 3 m/s 742 mmHg 76%
    20:00 +21°C° 0 mm 2 m/s 742 mmHg 80%
    21:00 +21°C° 0 mm 2 m/s 742 mmHg 82%
    22:00 +20°C° 0 mm 2 m/s 742 mmHg 85%
    23:00 +19°C° 0 mm 2 m/s 742 mmHg 87%
    Voir plus